User: anonymous   Login
Location: ?
(35.4214°N, 139.3011°E)
Time: 08:11:05
(UTC+00:00)
Language:

SPOT 1/Viking Rocket - Orbit

View from above orbital plane
View from above orbital plane
View from above satellite
View from above satellite

Ground track
Ground track

The orbit data is extracted from the following two-line orbital elements,

1 16615U 86019C   20265.83226799 +.00000000 +00000-0 +16012-4 0  9998
2 16615 098.4686 328.9019 0012788 123.5983 351.3019 14.31807129810075
Epoch (UTC): 21 September 2020 19:58:27
Eccentricity: 0.0012788
inclination: 98.4686°
perigee height: 776 km
apogee height: 795 km
right ascension of ascending node: 328.9019°
argument of perigee: 123.5983°
revolutions per day: 14.31807129
mean anomaly at epoch: 351.3019°
orbit number at epoch: 81007

The dashed part of the orbit path shows where the satellite is in the earth's shadow,  

DLR